Other Public Products
Issued by NWS Grand Forks, ND

Home | Current Version | Previous Version | Graphics & Text | Print | Product List | Glossary On
Versions: 1 2 3 4 5 6 7 8 9 10 11 12 13 14 15 16 17 18 19 20 21 22 23 24 25 26 27 28 29 30 31 32 33 34 35 36 37 38 39 40 41 42 43 44 45 46 47 48 49 50
000
FPUS83 KFGF 220331
OPUFGF
PRAIRIE TO PINES WEATHER ROUNDUP
NATIONAL WEATHER SERVICE EASTERN NORTH DAKOTA/GRAND FORKS ND
1000 PM CDT SAT APR 21 2018

 **SATELLITE DATA USED TO AUGMENT SKY COVER AT AUTOMATED STATIONS**
 *****  WEATHER ACROSS EASTERN NORTH DAKOTA  *****

CITY           SKY/WX    TMP DP  RH WIND       PRES   REMARKS
GRAND FORKS    FAIR      47  44  90 SE8       30.23S
GRND FORKS AFB FAIR      48  43  85 SE9       30.23R
GRND FORKS NWS   N/A     51  43  74 S13       30.21S
BUXTON           N/A     49  46  92 SE12        N/A
DEVILS LAKE    FAIR      48  35  60 S13       30.19R
FARGO          FAIR      52  42  69 S14G23    30.27R
WAHPETON ARPT  FAIR      45  37  76 SE9       30.31R
$$

 *****  WEATHER ACROSS CENTRAL AND WESTERN NORTH DAKOTA  *****

CITY           SKY/WX    TMP DP  RH WIND       PRES   REMARKS
JAMESTOWN      FAIR      45  38  76 S10       30.22R
BISMARCK       FAIR      48  36  63 S15       30.17R
MINOT          FAIR      51  37  58 SE13      30.07R
MINOT AFB      FAIR      50  38  64 S13       30.05R
GARRISON         N/A     44  35  70 S14       30.10R
WILLISTON      FAIR      57  40  52 S14       29.97R
DICKINSON      FAIR      46  37  71 S18       30.06R
HETTINGER      FAIR      43  35  73 S15       30.12R
$$

 *****  OTHER OBSERVATIONS NORTHEAST NORTH DAKOTA  *****

CITY           SKY/WX    TMP DP  RH WIND       PRES   REMARKS
WALHALLA       FAIR      50  43  76 S10       30.18S
LANGDON        FAIR      46  43  87 S14       30.18S
CAVALIER         N/A     50  45  81 S12       30.19S
GRAFTON        FAIR      46  45  93 SE10      30.24S
CANDO          FAIR      45  37  76 S14       30.18R
FORT TOTTEN      N/A     49  34  56 S13       29.95S
ROLLA          FAIR      46  41  81 S16       30.13R
RUGBY          FAIR      48  39  71 S13       30.12R
 ***** THE ABOVE OBSERVATIONS ARE NON NWS ARE NOT QUALITY
        CONTROLLED AND MAY MIS-REPORT RAIN FOR SNOW...
$$

 *****  OTHER OBSERVATIONS SOUTHEAST NORTH DAKOTA *****

CITY           SKY/WX    TMP DP  RH WIND       PRES   REMARKS
COOPERSTOWN    FAIR      45  39  81 S12       30.24S
VALLEY CITY    NOT AVBL
OAKES            N/A     39  36  87 S9        30.27S
GWINNER          N/A     43  37  81 S9        30.27S
SHEYENNE NWR     N/A     44  42  92 S7        29.95S
BUFFALO          N/A     49  34  55 E8          N/A
WYNDMERE       NOT AVBL
 ***** THE ABOVE OBSERVATIONS ARE NON NWS ARE NOT QUALITY
       CONTROLLED AND MAY MIS-REPORT RAIN FOR SNOW...
$$

  *****  WEATHER ACROSS NORTHERN MINNESOTA  *****

CITY           SKY/WX    TMP DP  RH WIND       PRES   REMARKS
FLAG ISLAND    FAIR      43  28  56 CALM      30.26R
WARROAD        FAIR      45  39  81 CALM      30.27S
ROSEAU         FAIR      46  41  81 SE5       30.26S
HALLOCK        FAIR      46  43  87 SE10      30.22S
THF RVR FALLS  FAIR      48  38  68 S6        30.28R
HALSTAD        NOT AVBL
FOSSTON        FAIR      43  34  70 S6        30.29S
BAUDETTE       FAIR      47  34  60 S5        30.27R
WASKISH        FAIR      39  28  65 SE5       30.29S
CROOKSTON      FAIR      45  39  81 S9        30.27R
$$
  *****  WEATHER ACROSS CENTRAL AND WEST MINNESOTA  *****

CITY           SKY/WX    TMP DP  RH WIND       PRES   REMARKS
BEMIDJI        FAIR      44  28  52 S6        30.29S
PARK RAPIDS    FAIR      48  32  53 S5        30.30R
WADENA         FAIR      43  34  70 CALM      30.32R
DETROIT LAKES  FAIR      45  34  65 CALM      30.31S
MOORHEAD       FAIR      48  41  76 SE10      30.29S
FERGUS FALLS   FAIR      46  36  66 SE7       30.29S
ELBOW LAKE     FAIR      42  35  74 S6        30.32S
MORRIS MN      FAIR      43  37  81 S8        30.33R
STAPLES        FAIR      45  30  57 S3        30.32S
WHEATON        FAIR      45  37  76 S12       30.34R
$$
  *****  WEATHER ELSEWHERE ACROSS MINNESOTA  *****

CITY           SKY/WX    TMP DP  RH WIND       PRES   REMARKS
DULUTH         FAIR      44  21  40 CALM      30.34R
INTRNTL FALLS  FAIR      44  26  49 S5        30.28R
ELY            FAIR      45   9  23 CALM      30.32S
CLOQUET        FAIR      37  14  38 CALM      30.34S
BRAINERD       FAIR      43  29  57 SE5       30.33S
HIBBING        FAIR      43  18  36 S5        30.32R
ALEXANDRIA     FAIR      46  35  65 SW6       30.33R
SAINT CLOUD    FAIR      40  31  70 CALM      30.34R
MINNEAPOLIS    FAIR      52  34  50 SW6       30.36R
$$

  *****  WEATHER ACROSS SOUTH DAKOTA  *****

CITY           SKY/WX    TMP DP  RH WIND       PRES   REMARKS
SIOUX FALLS    CLOUDY    43  34  70 E8        30.30S
BROOKINGS      FAIR      39  32  76 SE7         N/A
WATERTOWN      FAIR      42  33  70 SE5       30.29S
HURON          FAIR      42  35  76 SE7       30.28S
SISSETON         N/A     44  37  76 S10       30.30R
ABERDEEN       FAIR      39  33  79 S5        30.28R
MITCHELL       FAIR      40  35  83 SE7       30.29R
PIERRE         FAIR      41  38  89 SE12      30.22R
MOBRIDGE       FAIR      43  35  73 SE10      30.20R
RAPID CITY     FAIR      40  35  83 SE12      30.13R
$$

  *****  SOME WEATHER IN NEARBY STATES *****

CITY           SKY/WX    TMP DP  RH WIND       PRES   REMARKS
GLASGOW MT     FAIR      58  26  29 NW24G33   29.94R
GREAT FALLS MT FAIR      48  21  34 NW10      30.06S
CHEYENNE WY    FAIR      36  34  92 SW14      30.14F
SCOTTSBLUFF NE MOCLDY    40  38  93 SE13      30.19R
OMAHA NE       CLOUDY    53  28  38 E12       30.25R
DES MOINES IA  CLOUDY    53  29  39 E13G22    30.29R
DAVENPORT IA   CLOUDY    50  34  54 E12       30.37S
CHICAGO IL     CLOUDY    47  16  29 E5        30.40R
EAU CLAIRE WI  FAIR      40  30  67 SW3       30.36R
LA CROSSE WI   CLOUDY    50  35  56 CALM      30.37R
$$

  *****  SOME NATIONAL WEATHER *****

CITY           SKY/WX    TMP DP  RH WIND       PRES   REMARKS
LA GUARDIA NY  FAIR      55  23  28 NW9       30.33R
RALEIGH NC     MOCLDY    55  39  54 SE5       30.35R
ATLANTA GA     MOCLDY    63  40  42 E8        30.25F
NEW ORLEANS LA CLOUDY    71  67  87 SE14      30.05F
OKLAHOMA CITY  DRIZZLE   47  46  97 N13       30.10R
ALBUQUERQUE NM FAIR      63  25  23 CALM      30.11R
SALT LAKE CITY FAIR      61  29  29 CALM      30.13R
LOS ANGELES CA MOCLDY    61  53  75 W8        29.96S
BOISE ID       FAIR      62  32  32 NW8       30.09S
SEATTLE WA     MOCLDY    52  36  54 N9        30.39F
$$

*** WEATHER ACROSS MANITOBA...SASKATCHEWAN AND ONTARIO ***
                ***ONTARIO***

CITY           SKY/WX    TMP DP  RH WIND       PRES   REMARKS
GERALDTON      CLEAR     41  19  42 SW6       30.32S
THUNDER BAY    CLEAR     34  27  75 NE3       30.35
SIOUX LOOKOUT  PTCLDY    32  23  69 CALM      30.26S
TORONTO        CLEAR     45  23  42 NW7       30.40S
BIG TROUT LK   CLEAR     37  27  65 SW2       30.18S
PICKLE LAKE    NOT AVBL
DRYDEN         CLEAR     52  23  32 S6        30.26S
KENORA         PTCLDY    50  27  40 S7        30.25R
$$
                *** MANITOBA***

CITY           SKY/WX    TMP DP  RH WIND       PRES   REMARKS
BRANDON        MOCLDY    52  39  62 S13       30.06R
DAUPHIN        CLEAR     55  39  54 S9        29.96F
ISLAND LAKE    MOCLDY    48  27  43 SE8       30.12S
PILOT MOUND      N/A     46  37  71 S13         N/A
THE PAS        CLOUDY    45  34  65 SE10      29.84F
THOMPSON       MOCLDY    50  30  46 SE3       29.99F
WINNIPEG       PTCLDY    52  41  66 S16       30.18S
LYNN LAKE      CLOUDY    46  34  61 E7        29.89S
CHURCHILL      CLOUDY    30  28  93 NE23      30.18R WCI  17
GILLAM         CLEAR     48  28  46 S5        30.07R
$$
                ***SASKATCHEWAN***

CITY           SKY/WX    TMP DP  RH WIND       PRES   REMARKS
ESTEVAN        MOCLDY    54  39  58 S23G30    29.93S
KINDERSLEY     MOCLDY    43  39  87 W25G39    29.78R
LLOYDMINSTER   LGT RAIN  39  39 100 W23G31    29.64R
PRINCE ALBERT  LGT RAIN  45  41  87 W8        29.69F
REGINA         CLOUDY    52  36  54 W23G33    29.87R
YORKTON        CLOUDY    48  39  71 SE17G23   29.83F



USA.gov is the U.S. government's official web portal to all federal, state and local government web resources and services.